Regional Weather Roundup
Issued by NWS

Home | Current Version | Previous Version | Graphics & Text | Print | Product List | Glossary Off
Versions: 1 2 3 4 5 6 7 8 9 10 11 12 13 14 15 16 17 18 19 20 21 22 23 24 25 26 27 28 29 30 31 32 33 34 35 36 37 38 39 40 41 42 43 44 45 46 47 48 49 50

000
ASUS43 KTOP 281608
RWRKS

WEATHER ROUNDUP FOR KANSAS
NATIONAL WEATHER SERVICE GOODLAND KS
1000 AM CST FRI NOV 28 2014

NOTE:  "FAIR" INDICATES FEW OR NO CLOUDS BELOW 12,000 FEET WITH NO
SIGNIFICANT WEATHER AND/OR OBSTRUCTIONS TO VISIBILITY.

KSZ001>006-013>018-027>032-041>047-281700-
NORTHWEST KANSAS

CITY           SKY/WX    TMP DP  RH WIND       PRES   REMARKS
GOODLAND       MOSUNNY   52  22  30 W7        29.91R
HAYS           SUNNY     52  28  40 SW8       29.89F
HILL CITY      SUNNY     53  27  36 SW7       29.87F
RUSSELL        MOSUNNY   45  30  55 SW10      29.88S
$$

KSZ061>065-074>080-084>089-281700-
SOUTHWEST KANSAS

CITY           SKY/WX    TMP DP  RH WIND       PRES   REMARKS
DODGE CITY     MOSUNNY   53  28  38 SW3       29.92F
ELKHART          N/A     55  26  32 S3          N/A
GARDEN CITY    MOSUNNY   46  27  47 W8        29.94S
GREAT BEND     MOSUNNY   46  30  53 S15       29.90S
LIBERAL        MOSUNNY   55  34  44 SW9       29.98F
PRATT          MOSUNNY   46  32  57 SW12      29.95F
$$

KSZ066>073-081>083-090>101-281700-
SOUTHEAST KANSAS

CITY           SKY/WX    TMP DP  RH WIND       PRES   REMARKS
CHANUTE        SUNNY     47  30  51 S23G30    30.02F
COFFEYVILLE    SUNNY     47  30  51 S22G28    30.07S
HUTCHINSON     SUNNY     47  31  53 S13       29.94F
MEDICINE LODGE   N/A     44  32  62 S10       29.97F
NEWTON         SUNNY     46  28  49 S18G24    29.97S
PARSONS        SUNNY     47  30  51 S18G29    30.06F
WICHITA INTL   MOSUNNY   49  31  49 S21       29.98F
WICHITA JABRA  SUNNY     48  31  51 SW20G28   29.97F
WICHITA MCCONL SUNNY     48  30  50 SW13G23   29.99F
WINFIELD       SUNNY     50  32  50 S16G26    30.03F
$$

KSZ007>012-019>026-033>040-048>060-102>105-281700-
NORTHEAST KANSAS

CITY           SKY/WX    TMP DP  RH WIND       PRES   REMARKS
CONCORDIA      SUNNY     46  30  53 SW7       29.87F
EMPORIA        SUNNY     49  31  49 SW10      29.95F
LAWRENCE       SUNNY     45  27  49 S14       29.96F
MANHATTAN      SUNNY     47  30  51 SW12      29.91F
MARYSVILLE     SUNNY     43  30  61 S10       29.88F
OLATHE IND     SUNNY     45  28  51 S20G28    29.97F
OLATHE EXE     SUNNY     44  28  53 S14G23    29.96F
SALINA         SUNNY     47  30  51 SW12      29.92F
TOPEKA BILLARD SUNNY     44  27  51 S7G20     29.95F
TOPEKA FORBES  SUNNY     45  27  49 S15       29.94F
$$


USA.gov is the U.S. government's official web portal to all federal, state and local government web resources and services.